Weather History for Marathon, FL

Change the Weather History Date:

Monday, January 14, 2013

  Actual Average Record
Temperature  
Mean Temperature 78 °F 69 °F  
Max Temperature 82 °F 75 °F 84 °F (2014)
Min Temperature 74 °F 64 °F 54 °F (2011)
Degree Days  
Heating Degree Days 0 1  
Month to date heating degree days 0 23  
Since 1 July heating degree days 6 44  
Cooling Degree Days 13 6  
Month to date cooling degree days 179 84  
Year to date cooling degree days 179 84  
Growing Degree Days 27 (Base 50)    
Moisture  
Dew Point 60 °F    
Average Humidity 58    
Maximum Humidity 64    
Minimum Humidity 51    
Precipitation  
Precipitation 0.00 in 0.04 in 0.12 in (2005)
Month to date precipitation 0.12 0.77  
Year to date precipitation 0.12 0.77  
Snow  
Snow 0.00 in - - ()
Month to date snowfall 0.0  
Since 1 July snowfall 0.0  
Snow Depth 0.00 in    
Sea Level Pressure  
Sea Level Pressure 30.12 in    
Wind  
Wind Speed 8 mph (ESE)    
Max Wind Speed 13 mph    
Max Gust Speed 20 mph    
Visibility 10 miles    
Events      
T = Trace of Precipitation, MM = Missing Value Source: NWS Daily Summary

Daily Weather History Graph

Daily Weather History Graph

Search for Another Location

Airport:

Trip Planner

Search our weather history database for the weather conditions in past years. The results will help you decide how hot, cold, wet, or windy it might be!

Date:

Astronomy

Jan. 14, 2013 Rise Set
Actual Time 7:10 AM EST 5:56 PM EST
Civil Twilight 6:46 AM EST 6:20 PM EST
Nautical Twilight 6:18 AM EST 6:48 PM EST
Astronomical Twilight 5:50 AM EST 7:16 PM EST
Moon 9:07 AM EST (1/14) 9:12 PM EST (1/14)
Length of Visible Light 11h 34m
Length of Day
10h 45m
Waxing Crescent, 11% of the Moon is Illuminated
Jan 14
Waxing Crescent
Jan 18
First Quarter
Jan 26
Full
Feb 3
Last Quarter
Feb 10
New

Hourly Weather History & Observations

Time (EST) Temp. Heat Index Dew Point Humidity Pressure Visibility Wind Dir Wind Speed Gust Speed Precip Events Conditions
12:53 AM 75.0 °F - 59.0 °F 57% 30.10 in 10.0 mi ESE 10.4 mph 16.1 mph N/A   Clear
1:53 AM 75.0 °F - 59.0 °F 57% 30.11 in 10.0 mi East 6.9 mph - N/A   Mostly Cloudy
2:53 AM 75.0 °F - 60.1 °F 60% 30.11 in 10.0 mi ESE 9.2 mph - N/A   Scattered Clouds
3:53 AM 73.9 °F - 59.0 °F 59% 30.10 in 10.0 mi ESE 5.8 mph - N/A   Clear
4:53 AM 75.0 °F - 62.1 °F 64% 30.09 in 10.0 mi ESE 5.8 mph - N/A   Mostly Cloudy
5:53 AM 75.0 °F - 60.1 °F 60% 30.10 in 10.0 mi ESE 8.1 mph - N/A   Overcast
6:53 AM 73.9 °F - 57.0 °F 55% 30.12 in 10.0 mi ESE 6.9 mph - N/A   Scattered Clouds
7:53 AM 75.0 °F - 57.9 °F 55% 30.14 in 10.0 mi SE 6.9 mph - N/A   Mostly Cloudy
8:53 AM 77.0 °F - 59.0 °F 54% 30.14 in 10.0 mi ESE 8.1 mph - N/A   Partly Cloudy
9:53 AM 79.0 °F - 63.0 °F 58% 30.14 in 10.0 mi ESE 10.4 mph 17.3 mph N/A   Clear
10:53 AM 80.1 °F 81.1 °F 61.0 °F 52% 30.14 in 10.0 mi ESE 8.1 mph 17.3 mph N/A   Clear
11:53 AM 81.0 °F 81.6 °F 60.1 °F 49% 30.13 in 10.0 mi ESE 9.2 mph - N/A   Clear
12:53 PM 79.0 °F - 62.1 °F 56% 30.12 in 10.0 mi East 9.2 mph - N/A   Scattered Clouds
3:53 PM 78.1 °F - 62.1 °F 58% 30.11 in 10.0 mi East 8.1 mph - N/A   Partly Cloudy
5:53 PM 75.0 °F - 60.1 °F 60% 30.14 in 10.0 mi East 6.9 mph - N/A   Clear
6:53 PM 75.0 °F - 59.0 °F 57% 30.14 in 10.0 mi East 8.1 mph - N/A   Clear
7:53 PM 75.0 °F - 60.1 °F 60% 30.14 in 10.0 mi ESE 8.1 mph - N/A   Partly Cloudy
8:53 PM 75.0 °F - 60.1 °F 60% 30.14 in 10.0 mi ESE 6.9 mph - N/A   Clear
9:53 PM 73.9 °F - 61.0 °F 64% 30.15 in 10.0 mi East 5.8 mph - N/A   Partly Cloudy
10:53 PM 73.9 °F - 61.0 °F 64% 30.14 in 10.0 mi ESE 8.1 mph - N/A   Clear
11:53 PM 73.9 °F - 62.1 °F 66% 30.12 in 10.0 mi East 6.9 mph - N/A   Clear